Temp
15 15 14 16 15 14 10 6 11 9 10 15 19 21 22 23 24 23 23 23 25 25 24 23 24 23 23 22 23 23 24 25 25 26 27 27 29 29 30 32 32 32 35 36
13 19 19 14 17 18 13 5 7 6 12 14 21 22 21 22 23 23 24 26 27 27 26 25 23 23 22 21 20 22 21 22 22 25 24 24 25 25 28 30 29 30 31 31
10 16 17 12 12 15 14 11 10 11 15 17 19 21 22 22 24 25 27 28 28 27 27 26 25 24 22 21 20 19 20 19 21 22 23 22 23 24 25 26 27 27 29 29
13 14 2 12 22 19 16 15 17 18 18 18 21 23 24 26 26 25 27 28 28 28 27 26 26 25 23 23 22 19 19 20 19 17 19 21 22 22 24 27 26 27 27 28
11 9 11 14 17 15 13 13 19 18 19 19 21 21 24 29 27 28 29 29 29 28 27 26 25 25 24 24 23 22 21 20 19 17 16 19 19 20 23 25 26 26 26 25
12 5 1 11 20 24 21 10 19 19 18 19 21 17 25 26 28 27 28 28 27 27 26 25 25 24 23 24 23 23 23 23 22 20 17 16 19 19 22 23 23 25 25 26
12 8 10 18 20 23 9 9 20 20 20 18 16 21 24 26 26 27 28 27 26 25 25 26 25 23 22 22 22 24 24 24 24 23 20 19 19 20 20 20 21 20 21 23
10 7 2 22 20 13 16 20 20 19 19 18 20 20 21 23 25 25 24 24 24 23 23 24 23 22 21 21 23 23 22 22 23 23 23 23 20 20 19 19 19 19 20 22
10 13 18 21 19 18 16 13 16 15 17 17 15 17 19 19 21 22 24 24 24 23 23 23 22 21 19 22 22 21 21 21 21 22 23 23 22 20 21 21 20 21 22 23
9 13 15 16 16 16 16 13 13 13 11 12 11 14 15 16 17 19 22 21 22 20 19 20 21 20 20 21 21 19 19 19 20 21 22 24 24 24 23 22 22 22 22 23
13 13 15 16 18 14 12 11 9 11 10 9 8 9 11 12 14 15 17 19 18 16 16 18 19 18 19 19 19 17 18 18 19 20 22 22 23 24 23 24 23 22 23 24
6 13 10 12 13 12 6 7 7 6 5 8 9 8 10 10 12 13 13 14 12 13 13 14 14 15 17 17 17 16 16 18 19 20 21 21 22 22 25 25 27 28 29 29
9 13 8 10 10 11 6 6 5 7 6 4 6 6 9 9 11 13 15 11 7 7 9 9 10 11 14 15 15 14 15 17 18 19 21 20 20 20 20 24 26 26 27 28
11 7 5 6 3 4 3 4 6 4 5 5 6 7 7 8 9 8 7 10 10 6 4 4 6 6 11 12 11 12 14 17 18 20 20 20 20 20 21 20 20 23 26 26
5 5 3 4 3 4 5 5 3 3 4 5 7 7 8 8 7 8 8 7 6 4 3 3 3 4 8 7 8 9 12 14 16 18 19 19 20 21 21 21 21 21 23 25
2 2 1 1 1 2 4 3 2 3 6 7 7 8 8 9 9 10 9 7 3 6 5 3 4 7 7 4 8 10 10 15 17 17 18 19 20 19 19 19 19 20 21 22
-2 -2 -0 -0 1 2 3 5 5 5 6 7 7 9 9 9 9 10 11 10 7 5 7 7 7 10 8 5 7 12 14 15 18 18 19 18 18 17 18 18 18 19 20 23
4 4 4 3 2 2 3 5 6 6 6 7 8 8 8 7 7 9 10 11 10 9 10 10 9 10 9 10 8 12 13 14 15 15 17 16 17 17 18 17 18 18 20 22
5 4 4 4 5 4 4 4 5 6 7 7 8 7 8 9 9 10 10 9 8 8 11 12 13 16 14 13 14 13 14 15 16 15 15 16 17 17 17 17 18 19 19 20
4 4 4 4 4 4 2 4 4 4 6 7 8 9 8 9 9 9 10 8 10 11 13 13 14 14 14 15 18 17 16 16 16 15 15 15 15 16 16 16 17 17 18 19
2 2 2 2 2 4 3 3 2 3 5 7 6 7 8 9 10 10 9 8 11 13 15 16 15 16 16 17 18 17 16 15 14 13 13 13 13 14 14 15 15 16 16 18
0 -0 -0 1 1 1 3 3 4 5 6 6 7 8 8 9 10 10 11 10 13 17 16 15 16 16 18 19 18 17 15 14 13 12 11 12 12 12 12 13 12 14 15 16
-0 0 1 -0 0 -0 2 4 4 5 5 6 6 7 8 9 10 8 8 13 15 17 15 15 18 19 17 13 14 13 12 11 11 10 10 10 10 11 11 11 12 13 13 14
0 0 -0 2 1 1 1 3 4 5 5 7 7 8 7 8 10 12 13 14 16 15 14 16 17 17 13 11 10 10 10 10 9 10 9 11 10 9 9 10 10 11 12 14
-1 -1 1 1 0 1 2 3 4 4 4 6 7 9 9 10 8 10 10 10 13 12 10 13 15 13 10 9 9 9 9 8 9 10 9 8 8 8 8 8 8 9 12 12
-1 1 2 1 1 3 3 4 2 3 4 3 6 7 7 9 9 10 9 11 9 10 8 8 10 10 9 8 8 7 7 7 7 7 8 8 8 6 6 6 7 8 9 10
2 5 3 1 3 4 3 2 1 0 2 3 3 5 6 7 8 9 9 7 7 7 7 6 6 8 8 7 4 4 4 5 6 7 9 6 5 5 5 5 6 7 7 8
MSLP
1024.91 1025.02 1025.25 1025.52 1025.74 1025.89 1025.86 1026.32 1026.05 1026.11 1025.97 1025.70 1025.77 1025.96 1026.21 1026.43 1026.76 1027.11 1027.53 1027.85 1028.09 1028.34 1028.68 1028.95 1029.13 1029.33 1029.42 1029.49 1029.42 1029.31 1029.04 1028.87 1028.79 1028.66 1028.56 1028.53 1028.49 1028.39 1028.21 1027.96 1027.94 1027.90 1027.58 1027.30
1025.05 1025.06 1025.25 1025.69 1026.11 1026.25 1026.75 1027.21 1027.19 1027.06 1026.52 1026.92 1026.59 1026.64 1026.74 1026.77 1026.83 1026.99 1027.25 1027.48 1027.79 1028.16 1028.57 1028.91 1029.22 1029.45 1029.67 1029.82 1029.89 1029.77 1029.65 1029.51 1029.42 1029.17 1029.07 1028.90 1028.67 1028.50 1028.29 1028.19 1028.18 1028.11 1027.91 1027.74
1025.23 1025.43 1025.40 1025.80 1027.07 1027.14 1027.46 1028.15 1028.30 1027.60 1027.43 1027.34 1026.90 1026.72 1026.70 1026.87 1026.91 1026.86 1026.86 1027.12 1027.49 1027.93 1028.40 1028.78 1029.12 1029.47 1029.73 1029.97 1030.11 1030.02 1029.91 1029.91 1029.75 1029.61 1029.39 1029.29 1029.05 1028.77 1028.47 1028.29 1028.18 1028.10 1028.00 1027.91
1025.78 1025.64 1025.95 1027.47 1027.54 1027.71 1027.89 1028.48 1028.45 1028.03 1027.45 1027.56 1027.32 1027.02 1026.96 1026.88 1026.77 1026.80 1026.89 1027.07 1027.39 1027.87 1028.33 1028.77 1029.19 1029.49 1029.80 1029.91 1029.97 1030.11 1029.98 1029.89 1029.88 1029.85 1029.66 1029.47 1029.25 1029.05 1028.81 1028.54 1028.36 1028.19 1028.09 1028.01
1026.24 1026.24 1027.35 1027.49 1028.01 1028.28 1028.34 1028.93 1029.04 1028.63 1028.22 1028.21 1027.98 1027.62 1026.87 1026.71 1026.83 1026.75 1026.77 1027.06 1027.46 1027.91 1028.39 1028.85 1029.16 1029.44 1029.62 1029.61 1029.66 1029.69 1029.73 1029.84 1029.90 1029.90 1029.76 1029.53 1029.37 1029.16 1028.92 1028.65 1028.40 1028.30 1028.18 1028.04
1026.91 1026.87 1027.33 1028.38 1028.37 1028.42 1028.60 1029.01 1029.78 1029.72 1029.44 1029.04 1028.46 1027.50 1026.64 1027.22 1027.19 1027.09 1027.10 1027.26 1027.63 1028.07 1028.45 1028.73 1028.96 1029.34 1029.38 1029.24 1029.27 1029.21 1029.28 1029.37 1029.54 1029.66 1029.72 1029.60 1029.31 1029.10 1028.86 1028.71 1028.49 1028.29 1028.07 1027.93
1027.94 1027.97 1028.49 1028.85 1028.69 1028.51 1029.13 1030.85 1030.53 1030.55 1030.26 1029.96 1029.55 1029.06 1028.24 1027.85 1027.54 1027.51 1027.35 1027.46 1027.77 1028.06 1028.22 1028.41 1028.78 1029.08 1029.07 1029.02 1028.92 1028.94 1029.11 1029.13 1029.11 1029.13 1029.21 1029.22 1029.15 1029.02 1028.86 1028.65 1028.40 1028.21 1027.96 1027.68
1029.76 1029.25 1029.43 1029.70 1029.28 1029.76 1031.52 1031.69 1031.70 1031.37 1031.19 1030.52 1030.17 1029.49 1028.91 1028.22 1027.66 1027.53 1027.52 1027.65 1027.78 1027.92 1028.07 1028.28 1028.65 1028.83 1028.75 1028.73 1028.73 1028.97 1028.99 1028.93 1028.84 1028.78 1028.77 1028.65 1028.71 1028.64 1028.57 1028.45 1028.16 1027.83 1027.52 1027.19
1031.86 1030.88 1030.97 1031.10 1031.32 1032.16 1032.90 1032.95 1032.50 1032.36 1032.08 1031.54 1030.85 1030.05 1029.39 1028.71 1028.22 1027.80 1027.48 1027.30 1027.47 1027.65 1027.75 1028.02 1028.26 1028.45 1028.40 1028.37 1028.67 1028.78 1028.84 1028.70 1028.57 1028.48 1028.36 1028.22 1028.13 1028.03 1027.84 1027.73 1027.63 1027.35 1027.05 1026.65
1032.74 1032.16 1032.01 1031.94 1032.64 1033.15 1033.48 1033.41 1033.25 1033.29 1033.01 1032.42 1031.55 1030.64 1029.77 1029.15 1028.43 1027.85 1027.37 1027.16 1027.27 1027.49 1027.50 1027.58 1027.89 1028.15 1028.18 1028.33 1028.55 1028.60 1028.52 1028.42 1028.33 1028.16 1027.86 1027.67 1027.58 1027.37 1027.21 1027.07 1026.97 1026.77 1026.46 1026.10
1033.28 1033.24 1032.74 1032.60 1032.96 1033.79 1033.56 1033.93 1034.01 1033.59 1033.27 1032.66 1031.81 1030.77 1030.16 1029.27 1028.61 1028.04 1027.46 1027.17 1027.33 1027.39 1027.39 1027.41 1027.67 1027.80 1028.01 1028.26 1028.37 1028.35 1028.26 1028.15 1027.97 1027.74 1027.45 1027.21 1027.09 1026.85 1026.72 1026.65 1026.57 1026.31 1025.93 1025.59
1035.61 1035.20 1035.23 1034.34 1034.30 1034.48 1034.65 1034.44 1034.25 1033.79 1033.05 1032.60 1031.82 1030.70 1029.97 1029.14 1028.42 1027.93 1027.55 1027.42 1027.48 1027.47 1027.53 1027.50 1027.69 1027.69 1027.79 1028.03 1028.17 1028.15 1027.96 1027.72 1027.45 1027.24 1027.02 1026.89 1026.66 1026.37 1026.18 1026.06 1025.70 1025.29 1024.88 1024.55
1037.04 1036.50 1036.53 1035.73 1035.63 1035.53 1035.47 1035.03 1034.49 1033.65 1033.01 1032.17 1031.36 1030.70 1029.87 1028.90 1028.17 1027.53 1026.99 1027.26 1027.44 1027.47 1027.55 1027.57 1027.60 1027.58 1027.65 1027.80 1027.92 1027.89 1027.70 1027.44 1027.20 1026.99 1026.66 1026.57 1026.40 1026.13 1025.68 1025.33 1025.21 1024.97 1024.66 1024.30
1037.65 1037.70 1036.72 1036.56 1036.35 1036.12 1035.67 1034.95 1034.26 1033.53 1032.68 1031.87 1031.01 1030.27 1029.50 1028.69 1027.94 1027.49 1027.22 1027.00 1027.03 1027.17 1027.26 1027.34 1027.47 1027.42 1027.48 1027.64 1027.70 1027.62 1027.47 1027.14 1026.79 1026.49 1026.39 1026.26 1026.10 1025.89 1025.62 1025.26 1024.71 1024.31 1024.09 1023.93
1038.26 1038.29 1037.97 1037.34 1036.82 1036.24 1035.63 1034.76 1033.90 1033.02 1032.17 1031.26 1030.56 1029.84 1028.90 1028.06 1027.54 1027.05 1026.72 1026.68 1026.72 1026.82 1026.84 1027.00 1027.12 1026.94 1027.19 1027.37 1027.38 1027.34 1027.16 1026.88 1026.66 1026.49 1026.30 1026.09 1025.87 1025.64 1025.39 1025.15 1024.79 1024.33 1023.90 1023.46
1038.61 1038.17 1037.74 1037.28 1036.57 1035.98 1035.17 1034.53 1033.73 1032.75 1031.79 1030.89 1029.98 1029.13 1028.45 1027.70 1027.00 1026.45 1026.23 1026.22 1026.44 1026.06 1026.08 1026.39 1026.46 1026.32 1026.62 1026.84 1026.89 1026.81 1026.79 1026.42 1026.11 1026.03 1025.73 1025.53 1025.45 1025.41 1025.21 1024.95 1024.62 1024.21 1023.73 1023.27
1038.82 1037.88 1037.45 1036.97 1036.47 1035.69 1034.99 1034.21 1033.43 1032.47 1031.49 1030.56 1029.70 1028.80 1027.96 1027.18 1026.46 1025.84 1025.52 1025.52 1025.64 1025.65 1025.72 1025.80 1025.70 1025.86 1026.04 1026.24 1026.39 1026.19 1025.98 1025.80 1025.45 1025.32 1025.12 1025.25 1025.25 1025.12 1024.93 1024.70 1024.37 1023.99 1023.51 1023.13
1038.89 1038.37 1037.84 1037.22 1036.39 1035.66 1034.89 1034.13 1033.28 1032.37 1031.37 1030.43 1029.47 1028.52 1027.67 1026.95 1026.28 1025.69 1025.35 1025.27 1025.24 1025.16 1025.11 1025.08 1025.13 1025.22 1025.34 1025.45 1025.66 1025.58 1025.47 1025.29 1025.27 1025.13 1025.01 1025.10 1025.01 1024.91 1024.69 1024.45 1024.15 1023.78 1023.28 1022.86
1038.62 1038.09 1037.55 1037.05 1036.44 1035.76 1034.96 1034.14 1033.30 1032.44 1031.36 1030.35 1029.18 1028.25 1027.54 1026.82 1026.21 1025.73 1025.40 1025.14 1024.90 1024.68 1024.43 1024.50 1024.41 1024.11 1024.37 1024.60 1024.72 1024.86 1024.77 1024.69 1024.63 1024.71 1024.81 1024.72 1024.64 1024.63 1024.50 1024.25 1023.92 1023.59 1023.23 1022.81
1038.49 1038.00 1037.49 1036.86 1036.38 1035.61 1034.94 1034.23 1033.47 1032.45 1031.39 1030.35 1029.24 1028.13 1027.37 1026.72 1026.24 1025.76 1025.39 1025.01 1024.77 1024.56 1024.35 1024.15 1024.00 1023.95 1023.93 1023.97 1023.66 1023.75 1023.98 1024.03 1024.06 1024.31 1024.47 1024.51 1024.52 1024.43 1024.28 1024.09 1023.80 1023.48 1023.11 1022.69
1038.48 1038.02 1037.47 1036.90 1036.24 1035.54 1034.92 1034.22 1033.45 1032.40 1031.39 1030.42 1029.47 1028.46 1027.58 1026.89 1026.34 1025.86 1025.29 1024.86 1024.60 1024.32 1023.86 1023.61 1023.54 1023.44 1023.46 1023.43 1023.32 1023.43 1023.60 1023.81 1023.98 1024.19 1024.37 1024.46 1024.49 1024.36 1024.17 1023.97 1023.69 1023.38 1022.97 1022.57
1038.55 1038.08 1037.53 1036.91 1036.20 1035.47 1034.79 1034.07 1033.24 1032.27 1031.28 1030.44 1029.57 1028.69 1027.79 1026.93 1026.40 1025.94 1025.57 1025.26 1024.62 1023.97 1023.79 1023.63 1023.39 1023.13 1022.85 1022.74 1022.79 1023.11 1023.45 1023.73 1024.02 1024.30 1024.44 1024.50 1024.43 1024.29 1024.13 1023.95 1023.70 1023.35 1022.95 1022.56
1038.42 1037.97 1037.41 1036.80 1036.12 1035.53 1034.69 1033.82 1033.14 1032.22 1031.45 1030.59 1029.82 1029.04 1028.25 1027.48 1026.82 1026.26 1025.74 1025.29 1024.64 1024.01 1024.02 1023.65 1022.92 1022.67 1022.80 1023.27 1023.37 1023.58 1023.79 1024.06 1024.29 1024.47 1024.51 1024.51 1024.39 1024.25 1024.13 1023.93 1023.66 1023.27 1023.00 1022.53
1038.21 1037.74 1037.23 1036.55 1036.03 1035.28 1034.38 1033.70 1033.08 1032.34 1031.69 1030.80 1030.14 1029.51 1028.82 1027.93 1027.17 1027.01 1026.51 1025.87 1025.02 1024.92 1024.75 1024.15 1023.68 1023.87 1024.15 1024.25 1024.31 1024.36 1024.45 1024.55 1024.62 1024.62 1024.57 1024.33 1024.36 1024.30 1024.14 1023.91 1023.64 1023.33 1022.94 1022.44
1038.22 1037.64 1036.93 1036.36 1035.80 1035.15 1034.51 1033.87 1033.03 1032.35 1031.69 1030.87 1030.23 1029.59 1029.12 1028.53 1028.05 1027.50 1027.19 1026.74 1026.10 1025.85 1025.71 1025.23 1024.74 1024.87 1024.98 1024.92 1024.87 1024.83 1024.81 1024.76 1024.63 1024.45 1024.40 1024.35 1024.24 1024.14 1024.04 1023.85 1023.61 1023.27 1022.76 1022.44
1038.02 1037.39 1036.83 1036.56 1036.02 1035.27 1034.73 1033.92 1033.29 1032.72 1031.89 1031.26 1030.44 1030.01 1029.55 1028.98 1028.45 1027.98 1027.66 1027.17 1027.01 1026.67 1026.49 1026.25 1025.84 1025.46 1025.45 1025.33 1025.16 1025.12 1025.00 1024.83 1024.65 1024.49 1024.24 1024.08 1024.02 1024.01 1023.85 1023.67 1023.43 1023.12 1022.78 1022.44
1037.84 1037.14 1036.60 1036.32 1035.88 1035.20 1034.87 1034.30 1033.69 1033.10 1032.38 1031.63 1031.04 1030.64 1030.01 1029.38 1028.78 1028.19 1027.97 1027.87 1027.65 1027.38 1027.11 1026.87 1026.59 1026.15 1025.72 1025.60 1025.53 1025.28 1025.03 1024.77 1024.50 1024.19 1023.90 1023.92 1023.87 1023.73 1023.60 1023.41 1023.18 1022.94 1022.65 1022.30
Wind_Speed
2 2 2 5 8 8 5 3 4 5 4 2 8 6 5 4 5 7 6 6 5 5 4 3 4 4 5 6 6 6 6 5 4 4 3 2 2 1 1 1 1 2 3 3
3 3 2 8 11 7 5 2 1 3 2 3 4 4 4 4 5 7 7 7 6 5 5 3 2 3 4 5 5 5 5 5 4 4 4 4 4 3 2 1 1 0 1 2
3 2 4 4 11 10 6 4 4 7 7 4 5 6 6 5 6 6 7 8 7 6 4 2 1 2 3 3 3 4 3 3 4 4 4 4 4 4 3 3 3 2 1 2
2 2 2 4 9 4 14 13 10 9 8 4 3 1 4 4 5 7 7 8 8 6 5 3 2 2 2 3 3 2 3 3 3 4 4 4 4 4 4 3 3 3 3 3
1 5 5 4 8 5 6 10 15 15 13 3 5 4 10 8 8 6 8 8 6 5 5 5 5 4 4 4 4 4 3 3 3 3 4 4 4 4 4 4 3 3 4 4
1 3 2 4 10 7 4 3 13 15 14 13 9 6 2 10 6 7 6 6 7 7 6 5 5 5 5 5 5 5 4 4 3 3 3 4 5 5 4 4 5 5 6 5
4 3 3 5 12 4 3 8 14 14 13 12 8 9 16 15 11 7 7 6 5 6 7 6 5 5 6 6 6 5 5 5 6 5 4 5 4 4 4 5 5 6 7 7
1 0 2 13 4 4 5 8 14 13 12 14 15 18 16 15 12 10 9 8 8 8 8 7 6 6 7 8 6 5 6 6 6 6 5 5 4 5 4 4 5 6 6 7
3 3 4 5 6 8 5 9 14 14 14 14 17 16 15 15 14 13 13 11 9 9 9 8 7 7 8 7 6 6 6 7 7 7 6 6 6 5 5 4 5 5 5 6
4 3 7 8 3 4 13 12 12 9 13 13 15 18 19 17 14 15 13 12 10 9 10 10 8 8 9 7 6 6 7 7 6 7 7 6 5 5 5 5 5 5 6 6
4 7 12 4 13 15 18 11 9 12 13 15 13 16 15 14 14 12 12 10 9 9 9 10 7 8 8 7 7 7 7 7 7 6 7 6 6 6 5 6 7 6 7 7
6 9 7 15 17 18 9 15 14 14 14 14 14 15 15 14 13 11 10 9 7 9 9 9 7 8 8 7 7 8 7 6 6 5 5 5 5 6 9 12 15 16 17 14
8 13 12 16 11 14 15 15 15 15 15 15 14 12 14 14 13 13 11 8 8 8 8 7 7 8 7 7 7 8 8 7 5 7 5 5 5 5 7 7 11 13 14 15
6 13 9 6 14 14 12 13 15 14 12 11 12 13 11 12 11 9 10 10 8 8 8 7 7 9 7 6 7 8 8 12 7 6 5 5 5 5 5 6 8 7 8 11
12 10 11 11 10 11 12 13 15 14 14 14 13 13 13 12 10 10 8 6 6 6 7 7 7 10 6 6 8 8 7 7 6 5 5 6 6 6 6 7 7 8 8 9
14 12 9 12 14 14 14 14 14 15 15 15 16 15 14 14 13 10 10 5 5 7 7 7 8 9 4 6 7 6 6 14 11 7 6 6 5 6 6 6 6 6 7 7
12 14 16 15 16 17 18 17 16 16 17 17 17 17 15 14 13 11 9 4 6 7 5 6 8 5 5 7 7 5 5 6 12 7 6 5 5 5 5 5 6 6 7 7
9 11 12 13 15 16 16 17 15 17 16 17 16 15 13 12 11 10 8 5 4 5 6 7 6 6 6 7 8 6 6 6 5 5 5 5 4 4 5 5 6 6 7 7
11 12 12 13 13 14 15 14 15 16 16 16 15 14 12 11 10 9 7 6 5 5 4 3 6 7 8 9 10 6 6 6 6 4 4 5 3 3 3 3 5 5 6 6
11 11 12 14 14 14 13 13 15 15 15 15 15 13 12 10 9 8 7 6 6 5 6 6 6 4 5 6 10 6 7 6 6 5 4 4 3 3 4 5 6 5 6 6
11 12 12 13 13 15 13 12 12 14 15 14 14 14 12 10 9 8 7 5 7 7 6 5 3 3 4 6 7 3 4 4 5 5 3 2 3 4 4 5 6 6 6 6
10 10 11 12 13 13 13 13 13 13 13 13 13 13 12 10 9 8 6 6 7 13 4 3 4 7 8 11 7 6 5 4 3 3 2 3 3 4 5 5 6 6 6 7
8 9 10 11 12 12 13 12 12 13 13 12 12 13 11 9 7 7 7 11 8 8 5 5 8 13 17 7 6 4 4 3 1 1 2 3 4 4 5 5 6 6 6 7
9 10 10 10 10 10 13 14 13 12 11 11 11 10 9 8 7 7 8 12 13 12 8 9 9 13 11 5 4 3 2 1 1 2 3 6 3 4 4 5 6 6 6 7
8 10 8 10 10 9 12 13 12 11 12 11 11 10 11 8 7 6 7 7 14 9 7 12 13 11 5 4 3 2 2 3 4 4 3 4 5 4 4 5 5 6 6 6
9 7 7 8 8 9 9 9 9 9 9 9 9 8 8 8 8 6 5 9 7 9 6 6 7 5 5 5 3 4 4 4 4 4 6 5 5 5 5 5 5 5 6 6
6 11 7 7 7 8 9 9 8 9 10 8 7 8 8 8 8 7 8 6 6 6 6 6 6 7 6 6 5 5 4 4 6 6 5 4 5 5 5 5 5 5 6 6
Wind_Direction
59 80 101 47 30 26 44 355 339 10 300 237 190 171 151 144 150 144 158 170 164 148 125 88 71 51 39 31 23 7 24 33 25 7 22 22 58 55 66 75 33 311 284 284
90 119 83 65 33 34 55 30 250 286 347 341 173 142 152 169 190 188 194 198 178 162 158 138 88 53 34 20 15 7 23 28 17 28 30 23 19 0 6 61 96 264 273 269
98 16 165 51 2 21 50 23 316 4 340 312 182 191 181 194 217 220 213 205 194 187 180 165 130 32 8 359 346 358 6 12 15 14 23 21 12 12 20 7 358 350 317 294
44 258 115 80 24 44 82 41 23 346 343 201 324 290 275 256 239 224 212 201 193 191 192 207 213 252 288 303 311 325 329 336 360 359 349 352 352 359 353 352 353 349 339 332
354 53 115 61 11 350 353 51 22 16 23 355 349 289 256 244 228 249 212 200 195 195 200 197 222 232 255 264 276 284 274 284 310 330 326 329 327 326 320 310 314 323 315 314
42 86 101 8 328 323 255 135 15 7 6 360 337 282 10 7 294 244 217 204 202 201 203 220 220 227 253 269 273 271 279 287 284 278 282 295 302 304 301 290 289 294 292 286
33 86 132 353 324 328 237 12 344 346 338 332 323 309 311 310 301 274 262 237 222 213 228 233 218 226 250 261 263 278 279 282 286 283 282 269 272 271 288 292 293 288 284 281
259 231 172 2 338 66 33 344 332 326 321 305 305 306 303 301 298 274 253 242 237 233 233 229 222 227 245 250 263 258 265 276 280 280 283 286 273 275 266 268 273 282 285 284
317 35 54 354 72 67 27 323 331 320 322 312 304 299 304 303 297 291 285 262 240 238 243 233 227 230 248 251 247 248 257 265 271 277 277 276 272 274 274 256 269 280 280 285
309 119 321 329 49 353 340 327 325 317 312 305 296 296 296 297 292 285 277 263 250 247 246 245 231 231 240 247 248 250 256 260 263 265 270 258 257 264 266 269 267 268 275 279
272 20 329 172 348 342 328 324 307 317 307 294 289 287 289 289 288 283 276 265 251 244 248 252 242 240 237 235 236 242 248 254 256 257 259 264 260 265 265 263 259 273 274 276
304 314 286 295 327 332 332 325 321 309 299 295 297 291 288 286 282 277 275 268 244 245 248 253 243 245 241 232 228 237 244 247 243 244 247 258 268 277 267 270 277 275 278 275
290 326 318 299 319 328 316 308 301 306 308 300 298 290 294 290 287 278 273 251 245 246 248 252 249 242 235 229 226 230 237 246 247 249 250 255 262 272 292 297 285 280 281 283
347 339 307 328 314 314 303 302 305 297 289 290 294 293 290 291 288 284 273 267 259 241 241 238 237 242 238 226 225 232 240 246 239 239 245 253 258 268 281 293 302 304 295 291
336 321 292 300 303 316 319 318 320 319 316 315 314 308 305 304 289 284 280 264 261 242 239 224 228 247 229 214 220 225 232 238 242 250 255 254 252 260 280 284 283 291 297 295
315 306 316 325 326 327 329 327 324 322 323 322 322 320 313 306 301 289 285 261 225 240 232 214 228 242 204 199 216 223 230 241 234 232 244 255 255 269 275 278 282 283 285 288
325 335 333 333 334 333 333 330 328 326 325 325 325 322 317 314 311 308 302 275 235 251 253 229 239 236 207 202 209 228 239 228 238 242 248 245 257 265 272 278 283 290 291 289
319 322 328 327 327 332 330 332 330 330 329 326 323 322 323 321 319 318 324 324 281 275 257 247 240 234 220 210 208 225 226 226 224 241 236 230 242 251 270 272 279 290 300 305
337 331 333 332 337 329 331 329 331 328 328 328 329 331 328 324 326 326 324 315 302 295 317 292 260 250 211 214 209 217 220 223 227 221 227 237 242 260 276 287 291 297 303 304
334 335 333 333 334 335 330 330 329 329 330 330 333 340 341 343 339 334 332 321 314 305 286 274 266 249 237 234 250 200 210 224 230 216 215 220 251 277 291 295 301 304 304 305
335 334 332 334 330 333 331 327 326 329 330 333 336 340 342 339 343 342 341 343 349 313 293 299 306 257 227 230 240 208 210 210 210 204 206 243 282 288 292 298 300 298 299 301
331 329 327 332 333 331 332 327 330 332 339 340 342 345 343 351 353 351 349 332 318 316 345 316 294 266 253 230 225 216 205 192 185 182 214 254 272 285 293 300 300 300 297 302
329 329 328 331 333 324 323 341 338 339 344 340 347 347 347 348 349 353 348 340 339 54 24 332 322 58 53 63 65 74 103 120 141 251 276 275 274 281 288 292 292 299 301 300
335 332 328 332 332 336 343 343 337 341 338 339 347 349 346 347 356 9 349 345 16 23 6 344 28 50 46 37 36 40 52 39 275 273 263 275 272 277 281 288 290 294 294 300
326 319 325 343 343 345 343 337 335 344 340 342 340 348 348 351 346 4 349 0 352 26 7 352 5 31 20 10 360 356 333 312 292 270 286 280 278 271 277 285 286 287 288 306
332 328 338 343 335 335 342 342 344 340 342 342 340 348 343 341 337 4 4 13 10 16 9 0 349 6 351 335 354 327 312 301 306 296 284 281 280 276 278 283 283 288 292 295
339 352 0 348 348 345 339 353 345 338 332 325 352 353 350 351 343 6 13 10 7 2 1 358 353 348 350 341 332 319 305 294 288 279 281 280 273 273 272 273 277 283 286 286